| time (UTC) | temp F | wind direction | speed MPH | gust MPH | rain 1hr in | rain 24hr in | rain mn in | humidity % | barometer mb |
| 20260508132522 | 62 | 172 | 2.0 | 6.0 | 0.02 | 0.52 | 0.52 | 89 | 1014.5 |
| 20260508132039 | 62 | 165 | 2.0 | 4.0 | 0.02 | 0.52 | 0.52 | 90 | 1014.5 |
| 20260508131515 | 62 | 157 | 2.0 | 4.0 | 0.02 | 0.52 | 0.52 | 92 | 1014.4 |
| 20260508131032 | 61 | 151 | 2.0 | 4.0 | 0.02 | 0.52 | 0.52 | 93 | 1014.3 |
| 20260508130529 | 61 | 192 | 1.0 | 4.0 | 0.02 | 0.52 | 0.52 | 93 | 1014.4 |
| 20260508130026 | 61 | 218 | 1.0 | 3.0 | 0.02 | 0.52 | 0.52 | 93 | 1014.5 |
| 20260508125523 | 60 | 203 | 1.0 | 3.0 | 0.02 | 0.52 | 0.52 | 94 | 1014.6 |
| 20260508125020 | 60 | 200 | 1.0 | 3.0 | 0.07 | 0.52 | 0.52 | 94 | 1014.7 |
| 20260508124516 | 60 | 109 | 1.0 | 2.0 | 0.16 | 0.52 | 0.52 | 94 | 1014.6 |
| 20260508124034 | 60 | 186 | 1.0 | 4.0 | 0.17 | 0.52 | 0.52 | 94 | 1014.7 |
| 20260508123531 | 60 | 238 | 1.0 | 2.0 | 0.17 | 0.52 | 0.52 | 94 | 1014.9 |
| 20260508123209 | 60 | 277 | 0.0 | 3.0 | 0.16 | 0.51 | 0.51 | 93 | 1014.9 |
| 20260508122525 | 60 | 297 | 1.0 | 3.0 | 0.15 | 0.50 | 0.50 | 93 | 1014.7 |
| 20260508122021 | 60 | 117 | 2.0 | 4.0 | 0.15 | 0.50 | 0.50 | 93 | 1014.5 |
| 20260508121518 | 60 | 147 | 0.0 | 2.0 | 0.15 | 0.50 | 0.50 | 93 | 1014.7 |
| 20260508121035 | 60 | 216 | 0.0 | 2.0 | 0.15 | 0.50 | 0.50 | 92 | 1014.8 |
| 20260508120532 | 60 | 231 | 1.0 | 4.0 | 0.15 | 0.50 | 0.50 | 92 | 1014.7 |
| 20260508120029 | 60 | 175 | 1.0 | 4.0 | 0.15 | 0.50 | 0.50 | 92 | 1014.6 |
| 20260508115526 | 60 | 136 | 3.0 | 7.0 | 0.15 | 0.50 | 0.50 | 91 | 1014.4 |
| 20260508115024 | 61 | 122 | 6.0 | 11.0 | 0.10 | 0.45 | 0.45 | 89 | 1014.6 |
| 20260508114520 | 61 | 218 | 4.0 | 7.0 | 0.00 | 0.35 | 0.35 | 90 | 1015.6 |
| 20260508114017 | 61 | 120 | 2.0 | 4.0 | 0.00 | 0.35 | 0.35 | 91 | 1014.5 |
| 20260508113554 | 61 | 112 | 2.0 | 4.0 | 0.00 | 0.35 | 0.35 | 90 | 1014.6 |
| 20260508113031 | 60 | 98 | 1.0 | 3.0 | 0.00 | 0.35 | 0.35 | 90 | 1014.7 |
| 20260508112528 | 60 | 135 | 0.0 | 2.0 | 0.00 | 0.35 | 0.35 | 91 | 1014.7 |
| 20260508112045 | 60 | 86 | 1.0 | 2.0 | 0.02 | 0.35 | 0.35 | 91 | 1014.7 |
| 20260508111541 | 60 | 94 | 1.0 | 2.0 | 0.10 | 0.35 | 0.35 | 91 | 1014.5 |
| 20260508111018 | 60 | 143 | 2.0 | 3.0 | 0.13 | 0.35 | 0.35 | 92 | 1014.2 |
| 20260508110555 | 60 | 112 | 1.0 | 4.0 | 0.13 | 0.35 | 0.35 | 92 | 1014.3 |
| 20260508110032 | 60 | 137 | 1.0 | 4.0 | 0.13 | 0.35 | 0.35 | 91 | 1014.3 |
| 20260508105529 | 60 | 113 | 1.0 | 4.0 | 0.13 | 0.35 | 0.35 | 91 | 1014.2 |
| 20260508105026 | 60 | 84 | 1.0 | 3.0 | 0.13 | 0.35 | 0.35 | 91 | 1014.4 |
| 20260508104523 | 60 | 11 | 1.0 | 3.0 | 0.13 | 0.35 | 0.35 | 91 | 1014.5 |
| 20260508104019 | 60 | 43 | 2.0 | 4.0 | 0.13 | 0.35 | 0.35 | 91 | 1014.3 |
| 20260508103517 | 60 | 67 | 2.0 | 4.0 | 0.13 | 0.35 | 0.35 | 91 | 1014.1 |
| 20260508103033 | 60 | 96 | 2.0 | 5.0 | 0.14 | 0.35 | 0.35 | 91 | 1014.0 |
| 20260508102530 | 61 | 99 | 3.0 | 5.0 | 0.14 | 0.35 | 0.35 | 90 | 1014.0 |
| 20260508102026 | 61 | 115 | 2.0 | 4.0 | 0.12 | 0.33 | 0.33 | 89 | 1014.5 |
| 20260508101523 | 61 | 76 | 2.0 | 3.0 | 0.04 | 0.25 | 0.25 | 88 | 1014.7 |
| 20260508101019 | 61 | 261 | 2.0 | 4.0 | 0.02 | 0.22 | 0.22 | 87 | 1014.8 |
| 20260508100516 | 60 | 230 | 1.0 | 4.0 | 0.01 | 0.22 | 0.22 | 89 | 1014.4 |
| 20260508100033 | 60 | 135 | 0.0 | 2.0 | 0.01 | 0.22 | 0.22 | 90 | 1014.0 |
| 20260508095529 | 60 | 8 | 1.0 | 3.0 | 0.01 | 0.22 | 0.22 | 91 | 1014.1 |
| 20260508095026 | 60 | 100 | 2.0 | 3.0 | 0.01 | 0.22 | 0.22 | 91 | 1014.0 |
| 20260508094543 | 60 | 111 | 1.0 | 3.0 | 0.01 | 0.22 | 0.22 | 92 | 1014.0 |
| 20260508094020 | 60 | 127 | 1.0 | 3.0 | 0.01 | 0.22 | 0.22 | 92 | 1014.1 |
| 20260508093517 | 60 | 121 | 1.0 | 3.0 | 0.01 | 0.22 | 0.22 | 93 | 1014.0 |
| 20260508093054 | 60 | 82 | 2.0 | 3.0 | 0.00 | 0.21 | 0.21 | 93 | 1014.0 |
| 20260508092531 | 60 | 111 | 1.0 | 3.0 | 0.00 | 0.21 | 0.21 | 92 | 1013.9 |
| 20260508092027 | 60 | 69 | 1.0 | 3.0 | 0.00 | 0.21 | 0.21 | 92 | 1014.1 |
| 20260508091525 | 60 | 79 | 1.0 | 3.0 | 0.00 | 0.21 | 0.21 | 92 | 1014.0 |
| 20260508091041 | 60 | 94 | 2.0 | 4.0 | 0.00 | 0.21 | 0.21 | 92 | 1014.1 |
| 20260508090518 | 60 | 71 | 2.0 | 3.0 | 0.00 | 0.21 | 0.21 | 92 | 1014.2 |
| 20260508090055 | 60 | 40 | 0.0 | 2.0 | 0.00 | 0.21 | 0.21 | 92 | 1014.3 |
| 20260508085532 | 60 | 50 | 1.0 | 2.0 | 0.00 | 0.21 | 0.21 | 92 | 1014.4 |
| 20260508085029 | 60 | 52 | 2.0 | 3.0 | 0.00 | 0.21 | 0.21 | 91 | 1014.2 |
| 20260508084526 | 60 | 81 | 0.0 | 2.0 | 0.00 | 0.21 | 0.21 | 91 | 1014.2 |
| 20260508084022 | 60 | 96 | 0.0 | 2.0 | 0.00 | 0.21 | 0.21 | 91 | 1014.2 |
| 20260508083519 | 60 | 79 | 1.0 | 2.0 | 0.00 | 0.21 | 0.21 | 91 | 1014.2 |
| 20260508083016 | 60 | 62 | 2.0 | 4.0 | 0.00 | 0.21 | 0.21 | 90 | 1014.4 |
| 20260508082533 | 60 | 73 | 3.0 | 4.0 | 0.00 | 0.21 | 0.21 | 90 | 1014.4 |
| 20260508082030 | 60 | 77 | 2.0 | 4.0 | 0.00 | 0.21 | 0.21 | 90 | 1014.6 |
| 20260508081526 | 60 | 45 | 2.0 | 3.0 | 0.01 | 0.21 | 0.21 | 90 | 1014.8 |
| 20260508081044 | 60 | 36 | 2.0 | 2.0 | 0.05 | 0.21 | 0.21 | 90 | 1014.9 |
| 20260508080520 | 60 | 24 | 1.0 | 2.0 | 0.09 | 0.21 | 0.21 | 89 | 1015.0 |
| 20260508080017 | 60 | 112 | 0.0 | 2.0 | 0.13 | 0.21 | 0.21 | 89 | 1014.9 |
| 20260508075534 | 60 | 78 | 1.0 | 2.0 | 0.19 | 0.21 | 0.21 | 89 | 1014.5 |
| 20260508075031 | 60 | 110 | 2.0 | 4.0 | 0.21 | 0.21 | 0.21 | 89 | 1014.4 |
| 20260508074547 | 60 | 109 | 2.0 | 4.0 | 0.21 | 0.21 | 0.21 | 89 | 1014.5 |
| 20260508074024 | 60 | 81 | 2.0 | 4.0 | 0.20 | 0.20 | 0.20 | 88 | 1014.8 |
| 20260508073522 | 60 | 86 | 2.0 | 4.0 | 0.20 | 0.20 | 0.20 | 87 | 1015.0 |
| 20260508073017 | 60 | 70 | 2.0 | 3.0 | 0.20 | 0.20 | 0.20 | 86 | 1015.3 |
| 20260508072535 | 60 | 52 | 1.0 | 2.0 | 0.20 | 0.20 | 0.20 | 86 | 1015.7 |
| 20260508072033 | 61 | 313 | 1.0 | 3.0 | 0.20 | 0.20 | 0.20 | 86 | 1015.8 |
| 20260508071529 | 61 | 295 | 1.0 | 2.0 | 0.20 | 0.20 | 0.20 | 85 | 1015.8 |
| 20260508071025 | 62 | 73 | 1.0 | 3.0 | 0.16 | 0.16 | 0.16 | 82 | 1015.6 |
| 20260508070522 | 62 | 15 | 1.0 | 4.0 | 0.11 | 0.11 | 0.11 | 80 | 1015.9 |
| 20260508070039 | 63 | 150 | 1.0 | 2.0 | 0.08 | 0.08 | 0.08 | 76 | 1015.6 |
| 20260508065536 | 64 | 203 | 1.0 | 3.0 | 0.02 | 0.02 | 0.02 | 71 | 1015.9 |
| 20260508065032 | 64 | 215 | 2.0 | 4.0 | 0.00 | 0.00 | 0.00 | 68 | 1015.6 |
| 20260508064529 | 64 | 120 | 1.0 | 2.0 | 0.00 | 0.00 | 0.00 | 68 | 1015.2 |
| 20260508064046 | 64 | 76 | 1.0 | 2.0 | 0.00 | 0.00 | 0.00 | 68 | 1015.4 |
| 20260508063522 | 64 | 76 | 1.0 | 2.0 | 0.00 | 0.00 | 0.00 | 68 | 1015.5 |
| 20260508063020 | 64 | 86 | 1.0 | 2.0 | 0.00 | 0.00 | 0.00 | 68 | 1015.7 |
| 20260508062517 | 64 | 58 | 0.0 | 1.0 | 0.00 | 0.00 | 0.00 | 67 | 1015.7 |
| 20260508062033 | 64 | 84 | 1.0 | 2.0 | 0.00 | 0.00 | 0.00 | 67 | 1015.7 |
| 20260508061531 | 64 | 0.0 | 1.0 | 0.00 | 0.00 | 0.00 | 68 | 1015.8 | |
| 20260508061028 | 64 | 125 | 1.0 | 3.0 | 0.00 | 0.00 | 0.00 | 68 | 1015.7 |
| 20260508060524 | 64 | 138 | 1.0 | 3.0 | 0.00 | 0.00 | 0.00 | 67 | 1015.7 |
| 20260508060020 | 64 | 120 | 1.0 | 2.0 | 0.00 | 0.00 | 0.00 | 67 | 1015.6 |
| 20260508055537 | 64 | 114 | 0.0 | 2.0 | 0.00 | 0.00 | 0.00 | 67 | 1015.9 |
| 20260508055034 | 64 | 97 | 0.0 | 2.0 | 0.00 | 0.00 | 0.00 | 67 | 1015.8 |
| 20260508054551 | 64 | 165 | 1.0 | 2.0 | 0.00 | 0.00 | 0.00 | 67 | 1015.8 |
| 20260508054028 | 63 | 173 | 1.0 | 2.0 | 0.00 | 0.00 | 0.00 | 68 | 1015.9 |
| 20260508053525 | 63 | 148 | 0.0 | 2.0 | 0.00 | 0.00 | 0.00 | 69 | 1015.8 |
| 20260508053021 | 63 | 92 | 0.0 | 2.0 | 0.00 | 0.00 | 0.00 | 70 | 1015.8 |
| 20260508052518 | 63 | 148 | 0.0 | 2.0 | 0.00 | 0.00 | 0.00 | 70 | 1015.8 |
| 20260508052015 | 63 | 123 | 1.0 | 2.0 | 0.00 | 0.00 | 0.00 | 70 | 1015.7 |
| 20260508051532 | 63 | 70 | 0.0 | 2.0 | 0.00 | 0.00 | 0.00 | 70 | 1015.9 |
| 20260508051029 | 63 | 101 | 1.0 | 2.0 | 0.00 | 0.00 | 0.00 | 70 | 1015.7 |
| 20260508050525 | 63 | 109 | 1.0 | 2.0 | 0.00 | 0.00 | 0.00 | 69 | 1015.8 |
| 20260508050022 | 63 | 80 | 0.0 | 2.0 | 0.00 | 0.00 | 0.05 | 69 | 1016.1 |
| 20260508045519 | 63 | 109 | 1.0 | 2.0 | 0.00 | 0.00 | 0.05 | 69 | 1015.9 |
| 20260508045036 | 63 | 79 | 1.0 | 2.0 | 0.00 | 0.00 | 0.05 | 70 | 1015.9 |
| 20260508044533 | 63 | 71 | 1.0 | 2.0 | 0.00 | 0.00 | 0.05 | 69 | 1015.8 |
| 20260508044030 | 64 | 99 | 1.0 | 2.0 | 0.00 | 0.00 | 0.05 | 68 | 1015.9 |
| 20260508043527 | 64 | 112 | 0.0 | 2.0 | 0.00 | 0.00 | 0.05 | 68 | 1016.0 |
| 20260508043024 | 64 | 107 | 0.0 | 2.0 | 0.00 | 0.00 | 0.05 | 69 | 1015.9 |
| 20260508042519 | 64 | 139 | 0.0 | 2.0 | 0.00 | 0.00 | 0.05 | 69 | 1015.8 |
| 20260508042017 | 64 | 87 | 1.0 | 2.0 | 0.00 | 0.00 | 0.05 | 68 | 1015.7 |
| 20260508041534 | 64 | 117 | 1.0 | 2.0 | 0.00 | 0.00 | 0.05 | 68 | 1015.6 |
| 20260508041031 | 64 | 95 | 0.0 | 2.0 | 0.00 | 0.00 | 0.05 | 68 | 1015.8 |
| 20260508040528 | 64 | 127 | 1.0 | 2.0 | 0.00 | 0.00 | 0.05 | 67 | 1015.8 |
| 20260508040024 | 64 | 121 | 0.0 | 2.0 | 0.00 | 0.00 | 0.05 | 67 | 1015.7 |
| 20260508035521 | 64 | 139 | 1.0 | 2.0 | 0.00 | 0.00 | 0.05 | 67 | 1015.8 |
| 20260508035018 | 64 | 134 | 0.0 | 2.0 | 0.00 | 0.00 | 0.05 | 67 | 1015.8 |
| 20260508034535 | 64 | 133 | 1.0 | 2.0 | 0.00 | 0.00 | 0.05 | 66 | 1015.7 |
| 20260508034051 | 64 | 117 | 1.0 | 3.0 | 0.00 | 0.00 | 0.05 | 66 | 1015.5 |
| 20260508033529 | 64 | 149 | 0.0 | 2.0 | 0.00 | 0.00 | 0.05 | 65 | 1015.6 |
| 20260508033025 | 65 | 142 | 0.0 | 2.0 | 0.00 | 0.00 | 0.05 | 65 | 1015.4 |
| 20260508032522 | 65 | 165 | 0.0 | 2.0 | 0.00 | 0.00 | 0.05 | 64 | 1015.5 |
| 20260508032019 | 65 | 165 | 1.0 | 2.0 | 0.00 | 0.00 | 0.05 | 64 | 1015.4 |
| 20260508031516 | 65 | 146 | 1.0 | 3.0 | 0.00 | 0.00 | 0.05 | 64 | 1015.4 |
| 20260508031033 | 65 | 161 | 1.0 | 4.0 | 0.00 | 0.00 | 0.05 | 64 | 1015.4 |
| 20260508030530 | 65 | 155 | 1.0 | 3.0 | 0.00 | 0.00 | 0.05 | 64 | 1015.5 |
| 20260508030027 | 65 | 159 | 1.0 | 3.0 | 0.00 | 0.00 | 0.05 | 64 | 1015.4 |
| 20260508025524 | 65 | 148 | 1.0 | 4.0 | 0.00 | 0.00 | 0.05 | 64 | 1015.3 |
| 20260508025040 | 65 | 148 | 1.0 | 3.0 | 0.00 | 0.00 | 0.05 | 63 | 1015.4 |
| 20260508024537 | 66 | 146 | 1.0 | 3.0 | 0.00 | 0.00 | 0.05 | 63 | 1015.2 |
| 20260508024034 | 66 | 166 | 2.0 | 4.0 | 0.00 | 0.00 | 0.05 | 63 | 1015.1 |
| 20260508023551 | 66 | 161 | 2.0 | 3.0 | 0.00 | 0.00 | 0.05 | 63 | 1015.2 |
| 20260508023028 | 66 | 161 | 1.0 | 3.0 | 0.00 | 0.00 | 0.05 | 63 | 1015.0 |
| 20260508022525 | 66 | 148 | 1.0 | 3.0 | 0.00 | 0.00 | 0.05 | 63 | 1014.8 |
| 20260508022022 | 66 | 160 | 2.0 | 4.0 | 0.00 | 0.00 | 0.05 | 62 | 1015.0 |
| 20260508021538 | 66 | 152 | 2.0 | 4.0 | 0.00 | 0.00 | 0.05 | 62 | 1015.0 |
| 20260508021035 | 66 | 165 | 2.0 | 5.0 | 0.00 | 0.00 | 0.05 | 61 | 1015.0 |
| 20260508020532 | 67 | 169 | 2.0 | 5.0 | 0.00 | 0.00 | 0.05 | 61 | 1014.9 |
| 20260508020029 | 67 | 158 | 2.0 | 6.0 | 0.00 | 0.00 | 0.05 | 60 | 1014.8 |
| 20260508015545 | 67 | 173 | 2.0 | 4.0 | 0.00 | 0.00 | 0.05 | 60 | 1014.9 |
| 20260508015022 | 67 | 142 | 1.0 | 3.0 | 0.00 | 0.00 | 0.05 | 60 | 1014.8 |
| 20260508014519 | 67 | 158 | 2.0 | 4.0 | 0.00 | 0.00 | 0.05 | 60 | 1014.8 |
| 20260508014017 | 68 | 136 | 1.0 | 3.0 | 0.00 | 0.00 | 0.05 | 59 | 1014.9 |
| 20260508013533 | 68 | 136 | 1.0 | 2.0 | 0.00 | 0.00 | 0.05 | 59 | 1014.8 |
| 20260508013030 | 68 | 131 | 1.0 | 3.0 | 0.00 | 0.00 | 0.05 | 58 | 1014.8 |
| 20260508012527 | 68 | 152 | 1.0 | 3.0 | 0.00 | 0.00 | 0.05 | 58 | 1014.7 |
| 20260508012023 | 68 | 139 | 1.0 | 4.0 | 0.00 | 0.00 | 0.05 | 57 | 1014.8 |
| 20260508011520 | 69 | 218 | 1.0 | 4.0 | 0.00 | 0.00 | 0.05 | 57 | 1014.8 |
| 20260508011017 | 69 | 217 | 2.0 | 4.0 | 0.00 | 0.00 | 0.05 | 57 | 1014.7 |
| 20260508010534 | 69 | 147 | 1.0 | 4.0 | 0.00 | 0.00 | 0.05 | 57 | 1014.9 |
| 20260508010031 | 69 | 168 | 2.0 | 4.0 | 0.00 | 0.00 | 0.05 | 56 | 1015.1 |
| 20260508005528 | 69 | 170 | 2.0 | 4.0 | 0.00 | 0.00 | 0.05 | 56 | 1015.0 |
| 20260508005024 | 70 | 166 | 2.0 | 4.0 | 0.00 | 0.00 | 0.05 | 56 | 1014.9 |
| 20260508004522 | 70 | 194 | 2.0 | 5.0 | 0.00 | 0.00 | 0.05 | 55 | 1014.8 |
| 20260508004018 | 70 | 157 | 2.0 | 5.0 | 0.00 | 0.00 | 0.05 | 55 | 1014.7 |
| 20260508003515 | 70 | 185 | 2.0 | 5.0 | 0.00 | 0.00 | 0.05 | 55 | 1014.7 |
| 20260508003032 | 71 | 156 | 2.0 | 7.0 | 0.00 | 0.00 | 0.05 | 54 | 1014.9 |
| 20260508002529 | 72 | 152 | 2.0 | 6.0 | 0.00 | 0.00 | 0.05 | 53 | 1014.9 |
| 20260508002026 | 73 | 131 | 3.0 | 8.0 | 0.00 | 0.00 | 0.05 | 49 | 1014.9 |
| 20260508001544 | 73 | 105 | 1.0 | 4.0 | 0.00 | 0.00 | 0.05 | 45 | 1014.8 |
| 20260508001020 | 73 | 76 | 2.0 | 4.0 | 0.00 | 0.00 | 0.05 | 46 | 1014.8 |
| 20260508000516 | 73 | 74 | 2.0 | 5.0 | 0.00 | 0.00 | 0.05 | 45 | 1014.9 |
| 20260508000053 | 73 | 112 | 2.0 | 4.0 | 0.00 | 0.00 | 0.05 | 44 | 1015.2 |
| 20260507235531 | 73 | 95 | 2.0 | 4.0 | 0.00 | 0.00 | 0.05 | 45 | 1015.2 |
| 20260507235028 | 73 | 66 | 3.0 | 6.0 | 0.00 | 0.00 | 0.05 | 45 | 1015.1 |
| 20260507234524 | 73 | 66 | 2.0 | 4.0 | 0.00 | 0.00 | 0.05 | 44 | 1015.1 |
| 20260507234021 | 73 | 98 | 2.0 | 4.0 | 0.00 | 0.00 | 0.05 | 44 | 1015.1 |
| 20260507233518 | 73 | 87 | 3.0 | 4.0 | 0.00 | 0.00 | 0.05 | 45 | 1015.0 |
| 20260507233035 | 73 | 75 | 3.0 | 5.0 | 0.00 | 0.00 | 0.05 | 45 | 1015.1 |
| 20260507232532 | 74 | 72 | 3.0 | 6.0 | 0.00 | 0.00 | 0.05 | 45 | 1015.0 |
| 20260507232030 | 74 | 75 | 1.0 | 3.0 | 0.00 | 0.00 | 0.05 | 44 | 1015.1 |
| 20260507231547 | 74 | 103 | 1.0 | 3.0 | 0.00 | 0.00 | 0.05 | 45 | 1015.1 |
| 20260507231024 | 73 | 80 | 2.0 | 4.0 | 0.00 | 0.00 | 0.05 | 45 | 1015.0 |
| 20260507230521 | 73 | 76 | 3.0 | 5.0 | 0.00 | 0.00 | 0.05 | 46 | 1015.1 |
| 20260507230018 | 73 | 71 | 2.0 | 4.0 | 0.00 | 0.00 | 0.05 | 46 | 1015.2 |
| 20260507225555 | 73 | 100 | 2.0 | 4.0 | 0.00 | 0.00 | 0.05 | 45 | 1015.3 |
| 20260507225032 | 73 | 79 | 4.0 | 6.0 | 0.00 | 0.00 | 0.05 | 46 | 1015.2 |
| 20260507224528 | 73 | 76 | 4.0 | 7.0 | 0.00 | 0.00 | 0.05 | 47 | 1015.2 |
| 20260507224025 | 73 | 81 | 4.0 | 7.0 | 0.00 | 0.00 | 0.05 | 47 | 1015.3 |
| 20260507223522 | 73 | 78 | 3.0 | 6.0 | 0.00 | 0.00 | 0.05 | 47 | 1015.3 |
| 20260507223019 | 73 | 69 | 3.0 | 5.0 | 0.00 | 0.00 | 0.05 | 47 | 1015.3 |
| 20260507222516 | 73 | 69 | 4.0 | 6.0 | 0.00 | 0.00 | 0.05 | 47 | 1015.3 |
| 20260507222053 | 73 | 77 | 5.0 | 7.0 | 0.00 | 0.00 | 0.05 | 47 | 1015.4 |
| 20260507221529 | 74 | 83 | 4.0 | 7.0 | 0.00 | 0.00 | 0.05 | 47 | 1015.5 |
| 20260507221025 | 74 | 120 | 2.0 | 4.0 | 0.00 | 0.00 | 0.05 | 45 | 1015.4 |
| 20260507220542 | 74 | 71 | 2.0 | 5.0 | 0.00 | 0.00 | 0.05 | 46 | 1015.4 |
| 20260507220020 | 73 | 60 | 2.0 | 5.0 | 0.00 | 0.00 | 0.05 | 46 | 1015.4 |
| 20260507215517 | 73 | 78 | 4.0 | 6.0 | 0.00 | 0.00 | 0.05 | 46 | 1015.5 |
| 20260507215054 | 74 | 67 | 3.0 | 7.0 | 0.00 | 0.00 | 0.05 | 45 | 1015.5 |
| 20260507214530 | 74 | 77 | 2.0 | 6.0 | 0.00 | 0.00 | 0.05 | 45 | 1015.6 |
| 20260507214027 | 74 | 92 | 4.0 | 7.0 | 0.00 | 0.00 | 0.05 | 45 | 1015.6 |
| 20260507213524 | 74 | 66 | 2.0 | 5.0 | 0.00 | 0.00 | 0.05 | 44 | 1015.7 |
| 20260507213021 | 74 | 57 | 3.0 | 6.0 | 0.00 | 0.00 | 0.05 | 44 | 1015.7 |
| 20260507212538 | 74 | 43 | 3.0 | 5.0 | 0.00 | 0.00 | 0.05 | 43 | 1015.9 |
| 20260507212034 | 74 | 60 | 3.0 | 6.0 | 0.00 | 0.00 | 0.05 | 43 | 1015.9 |
| 20260507211531 | 74 | 34 | 3.0 | 5.0 | 0.00 | 0.00 | 0.05 | 43 | 1015.9 |
| 20260507211028 | 74 | 65 | 3.0 | 7.0 | 0.00 | 0.00 | 0.05 | 42 | 1016.0 |
| 20260507210525 | 74 | 51 | 4.0 | 8.0 | 0.00 | 0.00 | 0.05 | 43 | 1016.1 |
| 20260507210022 | 74 | 40 | 5.0 | 9.0 | 0.00 | 0.00 | 0.05 | 43 | 1016.2 |
| 20260507205519 | 75 | 75 | 5.0 | 10.0 | 0.00 | 0.00 | 0.05 | 43 | 1016.1 |
| 20260507205016 | 75 | 45 | 2.0 | 5.0 | 0.00 | 0.00 | 0.05 | 42 | 1016.1 |
| 20260507204532 | 75 | 44 | 4.0 | 7.0 | 0.00 | 0.00 | 0.05 | 42 | 1016.1 |
| 20260507204029 | 75 | 50 | 4.0 | 6.0 | 0.00 | 0.00 | 0.05 | 43 | 1016.0 |
| 20260507203526 | 74 | 34 | 3.0 | 8.0 | 0.00 | 0.00 | 0.05 | 43 | 1016.0 |
| 20260507203023 | 74 | 24 | 3.0 | 6.0 | 0.00 | 0.00 | 0.05 | 43 | 1016.0 |
| 20260507202520 | 74 | 54 | 4.0 | 7.0 | 0.00 | 0.00 | 0.05 | 42 | 1016.1 |
| 20260507202017 | 75 | 49 | 3.0 | 6.0 | 0.00 | 0.00 | 0.05 | 42 | 1016.3 |
| 20260507201534 | 75 | 52 | 3.0 | 6.0 | 0.00 | 0.00 | 0.05 | 42 | 1016.4 |
| 20260507201051 | 75 | 353 | 3.0 | 6.0 | 0.00 | 0.00 | 0.05 | 42 | 1016.4 |
| 20260507200528 | 74 | 56 | 4.0 | 8.0 | 0.00 | 0.00 | 0.05 | 42 | 1016.4 |
| 20260507200023 | 75 | 38 | 5.0 | 9.0 | 0.00 | 0.00 | 0.05 | 42 | 1016.5 |
| 20260507195521 | 74 | 18 | 4.0 | 8.0 | 0.00 | 0.00 | 0.05 | 42 | 1016.7 |
| 20260507195018 | 73 | 48 | 5.0 | 11.0 | 0.00 | 0.00 | 0.05 | 42 | 1016.6 |
| 20260507194534 | 73 | 24 | 5.0 | 8.0 | 0.00 | 0.00 | 0.05 | 43 | 1016.7 |
| 20260507194031 | 73 | 45 | 5.0 | 9.0 | 0.00 | 0.00 | 0.05 | 43 | 1016.9 |
| 20260507193547 | 73 | 41 | 5.0 | 9.0 | 0.00 | 0.00 | 0.05 | 42 | 1016.9 |
| 20260507193104 | 73 | 28 | 4.0 | 11.0 | 0.00 | 0.00 | 0.05 | 43 | 1017.1 |
| 20260507192522 | 73 | 19 | 4.0 | 10.0 | 0.00 | 0.00 | 0.05 | 42 | 1017.2 |
| 20260507192018 | 73 | 12 | 4.0 | 9.0 | 0.00 | 0.00 | 0.05 | 43 | 1017.3 |
| 20260507191515 | 73 | 27 | 3.0 | 9.0 | 0.00 | 0.00 | 0.05 | 43 | 1017.3 |
| 20260507191033 | 72 | 28 | 6.0 | 13.0 | 0.00 | 0.00 | 0.05 | 43 | 1017.2 |
| 20260507190530 | 72 | 45 | 6.0 | 11.0 | 0.00 | 0.00 | 0.05 | 45 | 1017.3 |
| 20260507190026 | 71 | 57 | 5.0 | 11.0 | 0.00 | 0.00 | 0.05 | 45 | 1017.5 |
| 20260507185523 | 71 | 42 | 7.0 | 13.0 | 0.00 | 0.00 | 0.05 | 45 | 1017.4 |
| 20260507185020 | 71 | 67 | 6.0 | 11.0 | 0.00 | 0.00 | 0.05 | 45 | 1017.4 |
| 20260507184517 | 72 | 74 | 6.0 | 9.0 | 0.00 | 0.00 | 0.05 | 45 | 1017.5 |
| 20260507184034 | 71 | 26 | 5.0 | 9.0 | 0.00 | 0.00 | 0.05 | 46 | 1017.5 |
| 20260507183531 | 71 | 42 | 6.0 | 9.0 | 0.00 | 0.00 | 0.05 | 47 | 1017.5 |
| 20260507183028 | 71 | 58 | 6.0 | 11.0 | 0.00 | 0.00 | 0.05 | 46 | 1017.6 |
| 20260507182524 | 71 | 39 | 5.0 | 10.0 | 0.00 | 0.00 | 0.05 | 47 | 1017.5 |
| 20260507182041 | 70 | 60 | 6.0 | 11.0 | 0.00 | 0.00 | 0.05 | 47 | 1017.8 |
| 20260507181518 | 70 | 42 | 8.0 | 15.0 | 0.00 | 0.00 | 0.05 | 46 | 1017.8 |
| 20260507181035 | 71 | 40 | 6.0 | 10.0 | 0.00 | 0.00 | 0.05 | 48 | 1017.7 |
| 20260507180532 | 70 | 39 | 5.0 | 12.0 | 0.00 | 0.00 | 0.05 | 49 | 1017.8 |
| 20260507180028 | 70 | 44 | 7.0 | 12.0 | 0.00 | 0.00 | 0.05 | 49 | 1018.0 |
| 20260507175545 | 70 | 36 | 6.0 | 10.0 | 0.00 | 0.00 | 0.05 | 49 | 1018.1 |
| 20260507175022 | 69 | 40 | 6.0 | 11.0 | 0.00 | 0.00 | 0.05 | 49 | 1018.1 |
| 20260507174519 | 69 | 44 | 6.0 | 12.0 | 0.00 | 0.00 | 0.05 | 49 | 1018.2 |
| 20260507174036 | 69 | 39 | 6.0 | 10.0 | 0.00 | 0.00 | 0.05 | 49 | 1018.4 |
| 20260507173532 | 69 | 28 | 7.0 | 12.0 | 0.00 | 0.00 | 0.05 | 49 | 1018.5 |
| 20260507173029 | 69 | 49 | 4.0 | 10.0 | 0.00 | 0.00 | 0.05 | 50 | 1018.7 |
| 20260507172607 | 68 | 50 | 5.0 | 9.0 | 0.00 | 0.00 | 0.05 | 51 | 1018.8 |
| 20260507172025 | 68 | 58 | 6.0 | 12.0 | 0.00 | 0.00 | 0.05 | 51 | 1018.8 |
| 20260507171522 | 68 | 56 | 6.0 | 14.0 | 0.00 | 0.00 | 0.05 | 50 | 1019.1 |
| 20260507171019 | 68 | 78 | 5.0 | 13.0 | 0.00 | 0.00 | 0.05 | 50 | 1019.2 |
| 20260507170535 | 68 | 64 | 6.0 | 11.0 | 0.00 | 0.00 | 0.05 | 49 | 1019.4 |
| 20260507170032 | 68 | 73 | 3.0 | 5.0 | 0.00 | 0.00 | 0.05 | 51 | 1019.5 |
| 20260507165530 | 67 | 49 | 5.0 | 9.0 | 0.00 | 0.00 | 0.05 | 52 | 1019.7 |
| 20260507165027 | 67 | 43 | 4.0 | 8.0 | 0.00 | 0.00 | 0.05 | 54 | 1019.7 |
| 20260507164523 | 67 | 33 | 5.0 | 10.0 | 0.00 | 0.00 | 0.05 | 54 | 1019.7 |
| 20260507164020 | 66 | 36 | 5.0 | 11.0 | 0.00 | 0.00 | 0.05 | 55 | 1019.7 |
| 20260507163517 | 67 | 37 | 6.0 | 11.0 | 0.00 | 0.00 | 0.05 | 55 | 1019.7 |
| 20260507163034 | 67 | 57 | 5.0 | 11.0 | 0.00 | 0.00 | 0.05 | 55 | 1019.7 |
| 20260507162551 | 66 | 50 | 5.0 | 11.0 | 0.00 | 0.00 | 0.05 | 55 | 1019.7 |
| 20260507162028 | 66 | 56 | 4.0 | 8.0 | 0.00 | 0.00 | 0.05 | 55 | 1019.6 |
| 20260507161525 | 66 | 29 | 4.0 | 8.0 | 0.00 | 0.00 | 0.05 | 56 | 1019.6 |
| 20260507161021 | 66 | 35 | 5.0 | 11.0 | 0.00 | 0.00 | 0.05 | 56 | 1019.6 |
| 20260507160538 | 65 | 37 | 5.0 | 11.0 | 0.00 | 0.00 | 0.05 | 58 | 1019.6 |
| 20260507160055 | 65 | 58 | 7.0 | 14.0 | 0.00 | 0.00 | 0.05 | 58 | 1019.7 |
| 20260507155531 | 65 | 54 | 6.0 | 11.0 | 0.00 | 0.00 | 0.05 | 57 | 1019.8 |
| 20260507155029 | 65 | 52 | 5.0 | 8.0 | 0.00 | 0.00 | 0.05 | 59 | 1019.6 |
| 20260507154525 | 65 | 60 | 5.0 | 9.0 | 0.00 | 0.00 | 0.05 | 59 | 1019.7 |
| 20260507154022 | 65 | 55 | 5.0 | 8.0 | 0.00 | 0.00 | 0.05 | 60 | 1019.9 |
| 20260507153519 | 64 | 51 | 3.0 | 6.0 | 0.00 | 0.00 | 0.05 | 62 | 1019.8 |
| 20260507153137 | 64 | 43 | 5.0 | 9.0 | 0.00 | 0.00 | 0.05 | 64 | 1020.0 |
| 20260507152533 | 63 | 58 | 6.0 | 13.0 | 0.00 | 0.00 | 0.05 | 64 | 1020.1 |
| 20260507152029 | 63 | 40 | 6.0 | 10.0 | 0.00 | 0.00 | 0.05 | 65 | 1020.1 |
| 20260507151527 | 63 | 42 | 4.0 | 8.0 | 0.00 | 0.02 | 0.05 | 66 | 1020.1 |
| 20260507151023 | 63 | 62 | 5.0 | 10.0 | 0.00 | 0.03 | 0.05 | 65 | 1020.2 |
| 20260507150519 | 63 | 38 | 4.0 | 7.0 | 0.00 | 0.04 | 0.05 | 66 | 1020.2 |
| 20260507150017 | 62 | 46 | 5.0 | 9.0 | 0.00 | 0.04 | 0.05 | 67 | 1020.2 |
| 20260507145534 | 62 | 44 | 5.0 | 11.0 | 0.00 | 0.04 | 0.05 | 68 | 1020.2 |
| 20260507145031 | 61 | 49 | 4.0 | 7.0 | 0.00 | 0.04 | 0.05 | 69 | 1020.2 |
| 20260507144528 | 61 | 54 | 6.0 | 9.0 | 0.00 | 0.04 | 0.05 | 69 | 1020.2 |
| 20260507144025 | 61 | 53 | 5.0 | 8.0 | 0.00 | 0.04 | 0.05 | 69 | 1020.2 |
| 20260507143521 | 61 | 46 | 5.0 | 8.0 | 0.00 | 0.04 | 0.05 | 69 | 1020.2 |
| 20260507143019 | 60 | 43 | 5.0 | 9.0 | 0.00 | 0.05 | 0.05 | 70 | 1020.3 |
| 20260507142515 | 60 | 49 | 4.0 | 10.0 | 0.00 | 0.05 | 0.05 | 70 | 1020.5 |
| 20260507142053 | 60 | 41 | 4.0 | 8.0 | 0.00 | 0.05 | 0.05 | 72 | 1020.4 |
| 20260507141529 | 60 | 50 | 4.0 | 8.0 | 0.00 | 0.05 | 0.05 | 72 | 1020.4 |
| 20260507141026 | 59 | 41 | 4.0 | 9.0 | 0.00 | 0.05 | 0.05 | 73 | 1020.4 |
| 20260507140523 | 59 | 39 | 5.0 | 8.0 | 0.00 | 0.05 | 0.05 | 73 | 1020.4 |
| 20260507140020 | 58 | 52 | 4.0 | 6.0 | 0.00 | 0.05 | 0.05 | 74 | 1020.4 |
| 20260507135517 | 59 | 32 | 3.0 | 5.0 | 0.00 | 0.05 | 0.05 | 74 | 1020.5 |
| 20260507135033 | 58 | 46 | 4.0 | 7.0 | 0.00 | 0.05 | 0.05 | 75 | 1020.7 |
| 20260507134530 | 58 | 44 | 4.0 | 6.0 | 0.00 | 0.05 | 0.05 | 76 | 1020.7 |
| 20260507134027 | 57 | 51 | 5.0 | 6.0 | 0.00 | 0.05 | 0.05 | 76 | 1020.6 |
| 20260507133524 | 57 | 51 | 5.0 | 8.0 | 0.00 | 0.05 | 0.05 | 76 | 1020.5 |
| 20260507133101 | 57 | 45 | 4.0 | 7.0 | 0.00 | 0.05 | 0.05 | 76 | 1020.6 |